Total_Precipitation_Accumulation
0.12 0.29 0.71 1.18 1.79 2.42 2.13 1.46 0.85 0.64 0.56 0.66 0.75 0.73 0.82 0.95 1.34 2.10 2.19 1.95 1.65 1.83 2.17 2.65 2.81 2.38 2.13 2.13 2.15 2.24 2.40 2.39 2.42 2.46 2.47 2.52 2.73 2.95 3.14 3.14 2.90 2.75 2.66 2.56 2.72 2.83 2.71 2.60 2.39
0.23 0.52 0.95 1.42 2.14 2.40 1.88 1.60 0.81 0.61 0.58 0.62 0.66 0.71 0.76 0.69 0.68 1.17 1.93 1.79 1.50 1.59 1.78 2.18 2.57 2.26 1.96 2.05 2.12 2.27 2.35 2.31 2.31 2.37 2.43 2.56 2.84 3.03 3.02 2.84 2.68 2.62 2.49 2.39 2.46 2.63 2.49 2.22 2.10
0.35 0.67 1.01 1.46 1.53 1.50 1.24 1.05 0.66 0.58 0.55 0.66 0.70 0.68 0.68 0.92 0.90 1.27 1.62 1.45 1.49 1.56 1.73 2.23 2.52 2.36 2.19 2.16 2.23 2.21 2.17 2.17 2.33 2.48 2.64 2.90 2.94 2.95 2.80 2.62 2.47 2.35 2.21 2.21 2.28 2.49 2.39 2.16 2.06
0.41 0.74 0.99 1.04 0.88 0.76 0.66 0.56 0.42 0.50 0.47 0.57 0.67 0.67 0.82 0.95 0.90 1.23 1.43 1.45 1.47 1.61 1.79 2.09 2.34 2.29 2.22 2.07 2.05 2.15 2.24 2.30 2.45 2.46 2.59 2.78 2.75 2.77 2.63 2.35 2.19 2.11 1.97 1.97 2.13 2.37 2.43 2.21 2.08
0.52 0.83 1.03 0.83 0.63 0.59 0.52 0.43 0.38 0.47 0.46 0.60 0.73 0.91 1.17 1.17 1.00 1.27 1.45 1.44 1.41 1.49 1.71 1.87 2.20 2.36 2.31 2.18 2.22 2.27 2.30 2.35 2.40 2.34 2.41 2.45 2.48 2.52 2.31 2.05 2.02 1.99 1.80 1.79 2.16 2.41 2.37 2.07 1.96
0.56 0.81 0.75 0.56 0.54 0.48 0.44 0.35 0.32 0.42 0.50 0.60 0.79 1.09 1.55 1.64 1.38 1.33 1.33 1.23 1.32 1.45 1.60 1.74 2.10 2.35 2.44 2.35 2.38 2.36 2.36 2.44 2.37 2.28 2.31 2.23 2.09 2.18 2.09 1.89 1.90 1.91 1.87 2.04 2.35 2.41 2.21 1.99 1.95
0.63 0.76 0.50 0.39 0.45 0.44 0.39 0.30 0.31 0.32 0.47 0.70 0.90 1.20 1.74 2.12 1.74 1.40 1.37 1.41 1.54 1.52 1.58 1.88 2.15 2.18 2.22 2.50 2.52 2.51 2.47 2.55 2.51 2.35 2.28 2.12 1.89 1.85 1.79 1.86 1.95 1.92 2.08 2.29 2.49 2.43 2.26 2.03 2.02
0.32 0.40 0.39 0.33 0.28 0.36 0.36 0.29 0.28 0.33 0.43 0.62 0.82 1.13 1.78 1.81 1.54 1.46 1.69 1.81 1.97 1.82 1.69 1.86 2.02 1.94 1.89 2.09 2.41 2.48 2.35 2.30 2.34 2.34 2.21 2.24 2.13 1.95 1.92 1.92 2.00 2.07 2.22 2.54 2.68 2.58 2.42 2.13 2.12
0.20 0.31 0.30 0.24 0.20 0.27 0.26 0.26 0.30 0.31 0.38 0.61 0.79 1.06 1.40 1.34 1.30 1.36 1.95 2.15 2.21 2.05 1.95 1.85 1.77 1.73 1.76 1.79 2.11 2.35 2.36 2.30 2.34 2.38 2.32 2.36 2.44 2.18 2.23 2.20 2.44 2.52 2.50 2.81 3.03 3.05 2.78 2.47 2.39
0.16 0.19 0.14 0.11 0.12 0.18 0.22 0.29 0.30 0.34 0.54 0.95 1.27 1.30 1.26 1.26 1.39 1.60 2.05 2.06 2.22 2.28 2.05 1.99 1.90 1.74 1.60 1.63 1.93 2.28 2.12 2.19 2.35 2.51 2.44 2.50 2.77 2.83 2.30 2.58 3.06 3.23 3.25 3.37 3.58 3.62 3.08 2.62 2.45
0.11 0.12 0.08 0.09 0.12 0.17 0.20 0.28 0.33 0.39 0.83 1.29 1.74 1.57 1.38 1.48 1.61 1.87 2.29 2.52 2.50 2.61 2.36 2.26 2.10 1.83 1.60 1.77 1.69 1.93 2.16 2.38 2.51 2.50 2.52 2.62 2.50 2.43 2.42 2.80 3.33 3.54 3.51 3.46 3.69 3.59 3.03 2.99 3.10
0.07 0.09 0.11 0.13 0.16 0.18 0.25 0.30 0.38 0.49 0.78 0.90 1.13 1.39 1.51 1.69 1.93 2.20 2.38 2.62 2.64 2.73 2.60 2.65 2.33 2.18 2.21 2.03 1.74 1.64 1.73 1.98 2.31 2.62 2.62 2.74 3.02 3.02 2.94 3.11 3.26 3.52 3.68 3.95 3.65 3.68 3.48 3.43 3.27
0.07 0.09 0.12 0.13 0.15 0.18 0.23 0.26 0.39 0.55 0.62 0.67 0.97 1.34 1.69 1.82 2.11 2.42 2.52 2.80 2.71 2.70 2.72 2.81 2.65 2.48 2.54 2.29 2.04 1.81 1.94 1.96 2.09 2.39 2.68 2.82 3.22 3.48 3.39 3.28 3.35 3.35 3.30 3.43 3.48 3.36 3.66 3.85 3.43
0.06 0.08 0.09 0.10 0.16 0.19 0.23 0.28 0.40 0.57 0.67 0.83 1.05 1.35 1.67 1.99 2.20 2.36 2.79 2.95 3.02 2.95 3.03 2.87 2.85 2.82 2.78 2.67 2.60 2.51 2.24 2.34 2.31 2.39 2.50 2.74 3.20 3.62 3.69 3.51 3.42 3.22 3.11 3.18 3.31 3.42 3.87 3.85 3.67
0.08 0.13 0.13 0.15 0.20 0.20 0.27 0.47 0.61 0.73 0.76 0.90 1.11 1.26 1.61 2.14 2.38 2.42 2.76 2.92 2.87 3.26 3.33 3.35 3.32 3.46 3.41 3.22 3.09 2.86 2.64 2.52 2.56 2.72 2.82 2.82 3.02 3.39 3.36 3.17 3.04 3.01 3.07 3.26 3.29 3.48 3.67 3.39 3.43
0.10 0.23 0.29 0.26 0.24 0.22 0.34 0.72 0.80 0.86 0.83 1.01 1.19 1.36 1.67 1.99 2.32 2.46 2.75 2.96 3.05 3.44 3.64 3.84 3.81 3.88 3.70 3.69 3.65 3.35 3.08 2.92 2.79 2.76 2.84 2.71 2.74 2.92 3.22 3.01 2.88 3.17 3.17 3.29 3.60 3.75 3.68 3.68 3.73
0.15 0.21 0.25 0.26 0.22 0.22 0.32 0.63 0.77 0.91 1.10 1.24 1.40 1.55 1.61 1.91 2.22 2.57 2.84 3.19 3.47 3.83 4.13 4.36 4.40 4.28 4.00 4.03 4.00 3.79 3.64 3.35 2.99 2.83 2.79 2.67 2.68 2.83 3.17 3.19 3.28 3.31 3.44 3.48 3.30 3.75 3.83 3.78 3.81
0.15 0.17 0.21 0.25 0.21 0.23 0.42 0.65 0.75 0.95 1.21 1.24 1.49 1.65 1.73 1.83 2.27 2.72 2.92 3.32 3.78 4.31 4.73 4.61 4.60 4.81 4.68 4.53 4.38 4.07 3.60 3.18 3.03 3.00 2.83 2.71 2.79 2.91 3.34 3.22 3.20 3.26 3.47 3.59 3.55 3.71 3.76 3.52 3.51
0.10 0.14 0.20 0.24 0.20 0.25 0.42 0.68 0.97 1.12 1.41 1.34 1.35 1.52 1.65 1.77 2.08 2.52 2.82 3.35 3.94 4.37 4.79 4.98 5.05 4.95 4.79 4.43 4.13 3.88 3.63 3.41 3.16 2.96 2.86 2.79 2.72 2.93 3.42 3.20 3.48 3.41 3.43 3.49 3.54 3.69 3.61 3.32 3.52
0.11 0.15 0.19 0.24 0.24 0.32 0.51 0.74 1.07 1.12 1.20 1.23 1.14 1.21 1.40 1.75 2.02 2.55 2.86 3.06 3.49 4.01 4.48 4.81 4.99 4.87 4.49 4.15 4.00 3.90 3.85 3.46 3.18 3.15 3.30 3.13 3.13 3.16 3.19 3.43 3.38 3.43 3.60 3.57 3.54 3.70 3.47 3.11 3.40
0.15 0.17 0.20 0.21 0.25 0.44 0.58 1.07 1.32 1.20 1.18 1.16 1.13 1.22 1.40 1.83 2.31 2.61 2.81 2.93 3.18 3.59 3.89 4.00 4.18 4.15 4.00 4.04 4.07 4.03 4.06 3.66 3.59 3.60 3.62 3.40 3.39 3.40 3.40 3.38 3.29 3.31 3.15 3.26 3.35 3.37 3.39 3.31 3.25
0.18 0.16 0.15 0.18 0.29 0.55 0.66 1.36 1.75 1.48 1.37 1.44 1.43 1.39 1.65 1.94 1.99 2.20 2.49 2.77 2.94 3.17 3.49 3.71 3.77 3.72 3.65 3.77 3.84 3.75 3.57 3.46 3.63 3.90 3.83 3.56 3.35 3.23 3.05 3.00 3.17 3.19 2.98 3.05 2.70 2.87 3.08 3.08 2.94
0.15 0.15 0.18 0.23 0.32 0.54 0.71 1.10 1.64 1.58 1.74 1.70 1.54 1.59 1.85 1.83 1.73 1.84 2.05 2.38 2.51 2.84 3.11 3.32 3.57 3.66 3.61 3.68 3.68 3.72 3.56 3.55 3.61 3.62 3.67 3.48 3.30 2.99 2.66 2.69 2.90 2.87 2.77 2.68 2.58 2.78 2.62 2.54 2.62
0.13 0.18 0.29 0.38 0.54 0.94 0.76 0.89 1.46 1.56 1.49 1.48 1.46 1.41 1.58 1.54 1.51 1.73 1.91 2.21 2.37 2.50 2.64 2.75 2.96 3.23 3.41 3.45 3.42 3.48 3.43 3.42 3.39 3.38 3.28 3.08 2.93 2.74 2.42 2.30 2.48 2.60 2.64 2.59 2.55 2.64 2.52 2.56 2.70
0.15 0.28 0.72 1.10 1.29 1.29 0.69 0.82 1.34 1.25 1.17 1.17 1.28 1.31 1.33 1.25 1.24 1.47 1.64 1.81 2.03 2.14 2.26 2.41 2.70 3.04 3.11 3.07 3.03 3.14 3.22 3.24 3.18 3.17 3.03 2.82 2.59 2.38 2.31 2.30 2.41 2.44 2.49 2.38 2.43 2.48 2.50 2.69 2.77
0.18 0.25 0.65 0.98 1.08 1.06 0.87 1.27 1.68 1.26 1.09 1.11 1.19 1.20 1.14 1.05 1.00 1.14 1.41 1.73 1.90 1.90 1.97 2.13 2.44 2.71 2.75 2.67 2.81 3.07 3.15 3.18 3.10 3.14 2.83 2.57 2.37 2.32 2.41 2.39 2.24 2.19 2.29 2.17 2.45 2.38 2.44 2.68 2.76
0.18 0.21 0.30 0.49 0.59 0.88 1.13 1.42 1.42 0.97 0.90 0.95 1.01 1.05 1.16 1.10 1.01 1.08 1.18 1.40 1.54 1.61 1.68 1.83 2.26 2.55 2.64 2.71 2.83 2.96 3.07 3.03 2.99 2.91 2.63 2.37 2.39 2.33 2.46 2.41 2.30 2.20 2.29 2.41 2.69 2.64 2.58 2.80 2.79
0.18 0.22 0.27 0.39 0.65 1.00 1.21 1.50 1.61 1.13 0.91 0.69 0.67 0.78 0.84 0.85 0.86 0.93 0.98 1.10 1.21 1.39 1.66 1.85 2.02 2.35 2.45 2.55 2.71 2.74 2.97 2.86 2.70 2.66 2.43 2.18 2.10 2.17 2.35 2.46 2.37 2.29 2.34 2.53 2.73 2.72 2.86 3.03 3.07
0.20 0.22 0.25 0.30 0.43 0.74 1.27 1.47 1.12 0.91 0.76 0.72 0.71 0.80 0.83 0.80 0.77 0.82 0.95 1.08 1.18 1.33 1.55 1.69 1.73 1.96 2.16 2.30 2.48 2.47 2.46 2.53 2.60 2.43 2.17 2.08 2.10 2.17 2.21 2.35 2.40 2.35 2.41 2.54 2.61 2.57 2.89 3.03 3.06
0.20 0.19 0.23 0.31 0.32 0.43 0.78 1.12 0.80 0.79 0.81 0.79 0.79 0.86 0.93 0.90 0.83 0.88 1.04 1.17 1.25 1.39 1.44 1.49 1.58 1.79 2.00 2.19 2.40 2.46 2.44 2.49 2.53 2.38 2.19 2.16 2.20 2.20 2.16 2.25 2.29 2.19 2.21 2.44 2.46 2.51 2.81 2.98 2.87